Weather History for KCUT - March, 2013

Change the Weather History Date:

Saturday, March 9, 2013

  Actual Average Record
Temperature  
Mean Temperature 29 °F 30 °F  
Max Temperature 36 °F 40 °F 64 °F (1989)
Min Temperature 21 °F 20 °F -16 °F (1964)
Degree Days  
Heating Degree Days 36 35  
Month to date heating degree days 308 323  
Since 1 July heating degree days 5850 6158  
Cooling Degree Days 0 0  
Month to date cooling degree days 0 0  
Year to date cooling degree days 0 0  
Moisture  
Dew Point 17 °F    
Average Humidity 63    
Maximum Humidity 88    
Minimum Humidity 38    
Precipitation  
Precipitation T in 0.02 in 0.41 in (1970)
Month to date precipitation T 0.19  
Year to date precipitation 0.93 1.05  
Sea Level Pressure  
Sea Level Pressure 29.88 in    
Wind  
Wind Speed 10 mph (North)    
Max Wind Speed 24 mph    
Max Gust Speed 43 mph    
Visibility 9 miles    
Events Snow    
T = Trace of Precipitation, MM = Missing Value Source: NWS Daily Summary

Daily Weather History Graph

Daily Weather History Graph

Search for Another Location

Airport or City:

Trip Planner

Search our weather history database for the weather conditions in past years. The results will help you decide how hot, cold, wet, or windy it might be!

Date:

Astronomy

Mar. 09, 2013 Rise Set
Actual Time 6:16 AM MST 5:53 PM MST
Civil Twilight 5:48 AM MST 6:22 PM MST
Nautical Twilight 5:14 AM MST 6:55 PM MST
Astronomical Twilight 4:41 AM MST 7:29 PM MST
Moon 4:45 AM MST (3/9) 3:55 PM MST (3/9)
Length of Visible Light 12h 34m
Length of Day
11h 36m
Waning Crescent, 5% of the Moon is Illuminated
Mar 9
Waning Crescent
Mar 11
New
Mar 19
First Quarter
Mar 27
Full
Apr 2
Last Quarter

Hourly Weather History & Observations

Time (MST) Temp. Windchill Dew Point Humidity Pressure Visibility Wind Dir Wind Speed Gust Speed Precip Events Conditions
12:53 AM 26.1 °F - 21.9 °F 84% 29.79 in 10.0 mi Calm Calm - N/A   Overcast
1:53 AM 25.0 °F 19.3 °F 21.9 °F 88% 29.79 in 10.0 mi NNW 4.6 mph - N/A   Mostly Cloudy
2:53 AM 26.1 °F - 23.0 °F 88% 29.75 in 10.0 mi Calm Calm - N/A   Mostly Cloudy
3:53 AM 30.0 °F 24.1 °F 24.1 °F 79% 29.72 in 10.0 mi North 5.8 mph - N/A   Mostly Cloudy
4:53 AM 30.0 °F 24.1 °F 24.1 °F 79% 29.70 in 10.0 mi North 5.8 mph - N/A   Clear
5:53 AM 30.9 °F 20.7 °F 24.1 °F 76% 29.75 in 10.0 mi NNE 13.8 mph 18.4 mph N/A   Overcast
6:45 AM 30.2 °F 21.9 °F 24.8 °F 80% 29.72 in 10.0 mi North 9.2 mph - N/A   Overcast
6:53 AM 30.0 °F 21.7 °F 23.0 °F 75% 29.79 in 10.0 mi North 9.2 mph 20.7 mph N/A   Overcast
7:46 AM 28.4 °F 17.5 °F 23.0 °F 80% 29.73 in 10.0 mi North 13.8 mph 26.5 mph N/A   Overcast
7:53 AM 28.9 °F 19.2 °F 23.0 °F 78% 29.81 in 10.0 mi North 11.5 mph 20.7 mph N/A   Overcast
8:37 AM 30.2 °F 20.2 °F 23.0 °F 75% 29.74 in 10.0 mi North 12.7 mph 21.9 mph N/A   Overcast
8:53 AM 30.0 °F 20.5 °F 23.0 °F 75% 29.83 in 10.0 mi North 11.5 mph 19.6 mph N/A   Overcast
9:43 AM 32.0 °F 22.1 °F 19.4 °F 60% 29.76 in 10.0 mi NNW 13.8 mph 23.0 mph N/A   Overcast
9:53 AM 32.0 °F 21.2 °F 18.0 °F 56% 29.83 in 10.0 mi NNW 16.1 mph 26.5 mph N/A   Overcast
10:53 AM 34.0 °F 25.0 °F 12.0 °F 40% 29.82 in 10.0 mi NNW 12.7 mph 23.0 mph N/A   Overcast
11:53 AM 34.0 °F 25.5 °F 10.9 °F 38% 29.83 in 10.0 mi NNE 11.5 mph 29.9 mph N/A   Mostly Cloudy
12:53 PM 35.1 °F 24.5 °F 12.9 °F 40% 29.82 in 10.0 mi North 18.4 mph 33.4 mph N/A   Clear
1:53 PM 35.1 °F 26.4 °F 14.0 °F 42% 29.84 in 10.0 mi North 12.7 mph 27.6 mph N/A   Clear
2:53 PM 34.0 °F 23.8 °F 12.9 °F 42% 29.87 in 10.0 mi NNW 16.1 mph 31.1 mph N/A   Clear
3:53 PM 33.1 °F 23.4 °F 12.0 °F 42% 29.90 in 10.0 mi North 13.8 mph 27.6 mph N/A   Clear
4:53 PM 30.0 °F 19.1 °F 8.1 °F 40% 29.96 in 10.0 mi North 15.0 mph 29.9 mph N/A   Clear
5:53 PM 27.0 °F 14.7 °F 9.0 °F 47% 30.00 in 10.0 mi North 16.1 mph 29.9 mph N/A   Scattered Clouds
6:53 PM 26.1 °F 16.8 °F 12.0 °F 55% 30.04 in 10.0 mi North 9.2 mph 19.6 mph N/A   Mostly Cloudy
7:53 PM 26.1 °F 18.4 °F 12.9 °F 58% 30.07 in 10.0 mi NNW 6.9 mph 17.3 mph N/A   Overcast
8:35 PM 24.8 °F 15.3 °F 15.8 °F 69% 29.99 in 3.0 mi NNW 9.2 mph 20.7 mph 0.00 in Snow Light Snow
8:53 PM 24.1 °F 17.0 °F 16.0 °F 71% 30.10 in 6.0 mi Variable 5.8 mph 17.3 mph 0.00 in Snow Light Snow
9:42 PM 24.8 °F 16.1 °F 15.8 °F 69% 30.00 in 6.0 mi North 8.1 mph - 0.00 in Snow Light Snow
9:53 PM 23.0 °F 14.7 °F 16.0 °F 74% 30.10 in 4.0 mi NNW 6.9 mph - 0.00 in Snow Light Snow
10:01 PM 23.0 °F 14.7 °F 15.8 °F 74% 30.00 in 3.0 mi NNW 6.9 mph - 0.00 in Snow Light Snow
10:53 PM 23.0 °F 11.1 °F 12.9 °F 65% 30.08 in 9.0 mi NNW 12.7 mph 24.2 mph 0.00 in Snow Light Snow
11:53 PM 21.0 °F 10.6 °F 12.0 °F 68% 30.08 in 9.0 mi NNW 9.2 mph 24.2 mph 0.00 in Snow Light Snow